Flag for Morocco Weather past 2 weeks in Tangier, Morocco

Now
73 °F

Fog.


Feels Like: 73 °F
Forecast: 71 / 84 °F
Wind: 9 mph from Southwest

Location: Tanger Aerodrome

Current Time: Sep 1, 2014 at 10:45:11 PM

Latest Report: Sep 1, 2014 at 10:00 PM


Visibility: 2 mi

Pressure: 29.92 "Hg

Humidity: 83%

Dew point: 68 °F

Location of TangierLocation

Historic Weather in Tangier — Graph

°F

Tangier temperature yesterday

Maximum temperature yesterday: 90 °F (at 2:00 PM)
Minimum temperature yesterday: 64 °F (at 6:00 AM)
Average temperature yesterday: 78 °F

Past Weeks' High & Low Weather Summary

 TemperatureHumidityPressure
High91 °F (Aug 28, 4:30 PM)94% (Aug 31, 6:00 AM)30.09 "Hg (Aug 31, 6:00 AM)
Low59 °F (Aug 21, 7:00 AM)32% (Aug 28, 4:30 PM)29.74 "Hg (Aug 17, 9:00 PM)
Average75 °F65%29.98 "Hg
* Reported Aug 17 9:00 PM — Sep 1 9:30 PM, Tangier, Weather by CustomWeather, © 2014

Note: Actual official high and low records may vary slightly from our data, if they occured in-between our weather recording intervals... More about our weather records

Advertising

Tangier weather history for previous 24 hours

 ConditionsComfort  
Time TempWeatherWind HumidityBarometerVisibility
9:30 PM
Sep 1
77 °FPassing clouds.8 mph74%29.89 "Hg4 mi
9:00 PM81 °FPassing clouds.13 mph66%29.89 "Hg4 mi
8:30 PM81 °FPassing clouds.10 mph62%29.86 "Hg5 mi
8:00 PM82 °FPassing clouds.9 mph58%29.86 "Hg5 mi
7:30 PM82 °FPassing clouds.8 mph58%29.86 "Hg5 mi
7:00 PM84 °FPassing clouds.12 mph55%29.86 "Hg5 mi
6:30 PM84 °FPassing clouds.16 mph55%29.83 "Hg5 mi
6:00 PM84 °FPassing clouds.6 mph58%29.86 "Hg5 mi
5:30 PM88 °FPassing clouds.5 mph49%29.86 "Hg5 mi
5:00 PM86 °FPassing clouds.12 mph52%29.86 "Hg5 mi
4:30 PM82 °FPassing clouds.7 mph62%29.86 "Hg5 mi
4:00 PM82 °FPassing clouds.7 mph62%29.89 "Hg5 mi
3:30 PM81 °FPassing clouds.8 mph66%29.89 "HgN/A
3:00 PM81 °FPassing clouds.9 mph66%29.89 "HgN/A
2:30 PM82 °FPassing clouds.12 mph62%29.92 "HgN/A
2:00 PM82 °FPassing clouds.12 mph62%29.92 "HgN/A
1:30 PM84 °FPassing clouds.13 mph58%29.92 "HgN/A
1:00 PM90 °FPassing clouds.13 mph46%29.89 "HgN/A
12:30 PM90 °FPassing clouds.13 mph46%29.92 "HgN/A
12:00 PM88 °FPassing clouds.15 mph49%29.92 "HgN/A
11:30 AM90 °FPassing clouds.15 mph43%29.92 "HgN/A
11:00 AM88 °FPassing clouds.15 mph49%29.92 "HgN/A
10:30 AM86 °FPassing clouds.12 mph52%29.92 "HgN/A
10:00 AM84 °FPassing clouds.12 mph55%29.92 "HgN/A
9:30 AM82 °FPassing clouds.14 mph58%29.92 "HgN/A
9:00 AM81 °FPassing clouds.13 mph62%29.92 "HgN/A
8:30 AM79 °FPassing clouds.12 mph65%29.92 "HgN/A
8:00 AM77 °FPassing clouds.8 mph69%29.92 "HgN/A
7:30 AM77 °FPassing clouds.10 mph69%29.92 "HgN/A
7:00 AM75 °FPassing clouds.9 mph74%29.89 "HgN/A
6:30 AM77 °FClear.9 mph69%29.89 "Hg5 mi
6:00 AM77 °FClear.12 mph69%29.89 "Hg5 mi
5:30 AM77 °FClear.12 mph69%29.89 "Hg5 mi
5:00 AM73 °FClear.3 mph78%29.89 "Hg5 mi
4:30 AM75 °FMild.7 mph74%29.89 "HgN/A
4:00 AM77 °FClear.8 mph69%29.89 "Hg5 mi
3:30 AM77 °FClear.8 mph69%29.92 "Hg5 mi
3:00 AM77 °FClear.9 mph69%29.89 "Hg5 mi
2:30 AM77 °FClear.8 mph69%29.89 "Hg5 mi
2:00 AM77 °FClear.12 mph69%29.89 "Hg5 mi
1:30 AM79 °FClear.17 mph61%29.89 "Hg5 mi
1:00 AM79 °FClear.13 mph61%29.89 "Hg5 mi
12:30 AM79 °FClear.13 mph61%29.89 "Hg5 mi
12:00 AM81 °FClear.15 mph54%29.89 "Hg5 mi
11:30 PM
Aug 31
81 °FClear.16 mph51%29.92 "Hg5 mi
11:00 PM81 °FClear.15 mph51%29.89 "Hg5 mi
10:30 PM81 °FClear.15 mph51%29.89 "Hg5 mi
10:00 PM81 °FClear.17 mph51%29.92 "Hg5 mi
Weather by CustomWeather, © 2014

See weather overviewHow to use our weather pages